Time,TemperatureF,DewpointF,PressureIn,WindDirection,WindDirectionDegrees,WindSpeedMPH,WindSpeedGustMPH,Humidity,HourlyPrecipIn,Conditions,Clouds,dailyrainin,SoftwareType,DateUTC
2013-01-01 00:00:00,29.2,23.5,29.39,SSW,203,0.2,0.2,79,0.00,,,0.00,WUHU216HW,2013-01-01 05:00:00,
2013-01-01 00:01:00,29.2,23.5,29.39,ESE,113,0.2,0.2,79,0.00,,,0.00,WUHU216HW,2013-01-01 05:01:00,
2013-01-01 00:02:00,29.2,23.5,29.38,WSW,239,0.3,0.9,79,0.00,,,0.00,WUHU216HW,2013-01-01 05:02:00,
2013-01-01 00:07:00,29.2,23.5,29.38,WSW,248,0.3,0.9,79,0.00,,,0.00,WUHU216HW,2013-01-01 05:07:00,
2013-01-01 00:12:00,29.3,23.7,29.38,West,279,0.4,0.7,79,0.00,,,0.00,WUHU216HW,2013-01-01 05:12:00,
2013-01-01 00:17:00,29.3,23.7,29.38,WSW,248,0.3,0.7,79,0.00,,,0.00,WUHU216HW,2013-01-01 05:17:00,
2013-01-01 00:23:00,29.3,23.7,29.38,NNE,23,0.3,0.4,79,0.00,,,0.00,WUHU216HW,2013-01-01 05:23:00,
2013-01-01 00:28:00,29.3,23.7,29.37,NNE,23,0.3,0.4,79,0.00,,,0.00,WUHU216HW,2013-01-01 05:28:00,
2013-01-01 00:33:00,29.3,23.7,29.37,WSW,243,0.7,1.1,79,0.00,,,0.00,WUHU216HW,2013-01-01 05:33:00,
2013-01-01 00:38:00,29.3,23.7,29.37,WSW,248,0.3,1.1,79,0.00,,,0.00,WUHU216HW,2013-01-01 05:38:00,
2013-01-01 00:43:00,29.3,23.7,29.37,WSW,248,0.0,0.4,79,0.00,,,0.00,WUHU216HW,2013-01-01 05:43:00,
2013-01-01 00:48:00,29.3,23.7,29.37,WSW,248,0.2,0.2,79,0.00,,,0.00,WUHU216HW,2013-01-01 05:48:00,
2013-01-01 00:53:00,29.3,23.7,29.37,North,0,0.7,1.1,79,0.00,,,0.00,WUHU216HW,2013-01-01 05:53:00,
2013-01-01 00:58:00,29.3,23.7,29.37,NW,315,0.2,1.1,79,0.00,,,0.00,WUHU216HW,2013-01-01 05:58:00,
2013-01-01 01:03:00,29.3,23.7,29.36,WSW,248,1.1,1.1,79,0.00,,,0.00,WUHU216HW,2013-01-01 06:03:00,
2013-01-01 01:08:00,29.3,23.7,29.37,SW,225,0.2,1.8,79,0.00,,,0.00,WUHU216HW,2013-01-01 06:08:00,
2013-01-01 01:13:00,29.5,23.8,29.36,East,90,0.3,1.8,79,0.00,,,0.00,WUHU216HW,2013-01-01 06:13:00,
2013-01-01 01:18:00,29.5,23.8,29.36,East,90,0.4,1.1,79,0.00,,,0.00,WUHU216HW,2013-01-01 06:18:00,
2013-01-01 01:23:00,29.5,23.8,29.36,ENE,76,0.4,1.3,79,0.00,,,0.00,WUHU216HW,2013-01-01 06:23:00,
2013-01-01 01:28:00,29.9,24.1,29.37,WSW,248,0.4,1.3,79,0.00,,,0.00,WUHU216HW,2013-01-01 06:28:00,
2013-01-01 01:33:00,29.9,24.1,29.37,WSW,252,0.4,1.8,79,0.00,,,0.00,WUHU216HW,2013-01-01 06:33:00,
2013-01-01 01:38:00,30.1,24.3,29.36,West,261,0.8,1.8,79,0.00,,,0.00,WUHU216HW,2013-01-01 06:38:00,
2013-01-01 01:43:00,30.1,24.3,29.36,SW,225,0.2,1.8,79,0.00,,,0.00,WUHU216HW,2013-01-01 06:43:00,
2013-01-01 01:48:00,30.1,24.3,29.36,WSW,248,0.4,0.7,79,0.00,,,0.00,WUHU216HW,2013-01-01 06:48:00,
2013-01-01 01:53:00,30.1,24.3,29.36,WSW,248,0.9,0.9,79,0.00,,,0.00,WUHU216HW,2013-01-01 06:53:00,
2013-01-01 01:58:00,30.1,24.3,29.36,SSE,156,0.3,1.1,79,0.00,,,0.00,WUHU216HW,2013-01-01 06:58:00,
2013-01-01 02:04:00,29.9,24.1,29.36,WSW,248,0.4,1.1,79,0.00,,,0.00,WUHU216HW,2013-01-01 07:04:00,
2013-01-01 02:09:00,29.9,24.1,29.36,South,171,0.3,0.7,79,0.00,,,0.00,WUHU216HW,2013-01-01 07:09:00,
2013-01-01 02:14:00,29.9,24.1,29.35,WSW,241,0.5,1.8,79,0.00,,,0.00,WUHU216HW,2013-01-01 07:14:00,
2013-01-01 02:19:00,29.9,24.1,29.36,SW,225,0.3,1.8,79,0.00,,,0.00,WUHU216HW,2013-01-01 07:19:00,
2013-01-01 02:24:00,30.1,24.7,29.35,West,270,0.2,1.1,80,0.00,,,0.00,WUHU216HW,2013-01-01 07:24:00,
2013-01-01 02:29:00,30.2,24.8,29.35,SW,226,0.6,1.6,80,0.00,,,0.00,WUHU216HW,2013-01-01 07:29:00,
2013-01-01 02:34:00,30.4,25.0,29.35,SW,226,0.3,1.6,80,0.00,,,0.00,WUHU216HW,2013-01-01 07:34:00,
2013-01-01 02:39:00,30.6,25.5,29.35,WSW,249,0.9,2.0,81,0.00,,,0.00,WUHU216HW,2013-01-01 07:39:00,
2013-01-01 02:45:00,31.0,25.8,29.35,WSW,252,1.4,2.0,81,0.00,,,0.00,WUHU216HW,2013-01-01 07:45:00,
2013-01-01 02:50:00,31.1,26.0,29.35,West,277,0.7,3.8,81,0.00,,,0.00,WUHU216HW,2013-01-01 07:50:00,
2013-01-01 02:55:00,31.3,26.2,29.35,SW,225,0.4,3.8,81,0.00,,,0.00,WUHU216HW,2013-01-01 07:55:00,
2013-01-01 03:00:00,31.5,26.1,29.35,WSW,243,0.7,1.3,80,0.00,,,0.00,WUHU216HW,2013-01-01 08:00:00,
2013-01-01 03:05:00,31.5,26.1,29.35,WSW,248,1.8,2.5,80,0.00,,,0.00,WUHU216HW,2013-01-01 08:05:00,
2013-01-01 03:10:00,31.7,26.3,29.35,WSW,248,0.9,2.5,80,0.00,,,0.00,WUHU216HW,2013-01-01 08:10:00,
2013-01-01 03:15:00,31.7,26.3,29.34,SW,225,0.7,2.0,80,0.00,,,0.00,WUHU216HW,2013-01-01 08:15:00,
2013-01-01 03:20:00,31.7,26.3,29.34,WSW,248,1.1,3.4,80,0.00,,,0.00,WUHU216HW,2013-01-01 08:20:00,
2013-01-01 03:25:00,31.9,26.5,29.34,SW,233,0.6,3.4,80,0.00,,,0.00,WUHU216HW,2013-01-01 08:25:00,
2013-01-01 03:30:00,31.9,26.5,29.34,West,263,0.2,1.8,80,0.00,,,0.00,WUHU216HW,2013-01-01 08:30:00,
2013-01-01 03:36:00,32.0,26.6,29.34,SW,225,0.0,0.7,80,0.00,,,0.00,WUHU216HW,2013-01-01 08:36:00,
2013-01-01 03:41:00,31.9,26.5,29.34,WSW,248,0.5,0.7,80,0.00,,,0.00,WUHU216HW,2013-01-01 08:41:00,
2013-01-01 03:46:00,31.9,26.5,29.34,SW,216,0.3,1.1,80,0.00,,,0.00,WUHU216HW,2013-01-01 08:46:00,
2013-01-01 03:51:00,31.9,26.5,29.34,WSW,242,0.3,1.1,80,0.00,,,0.00,WUHU216HW,2013-01-01 08:51:00,
2013-01-01 03:56:00,31.9,26.5,29.34,ENE,68,0.0,0.4,80,0.00,,,0.00,WUHU216HW,2013-01-01 08:56:00,
2013-01-01 04:01:00,31.9,26.5,29.34,WSW,248,0.9,1.8,80,0.00,,,0.00,WUHU216HW,2013-01-01 09:01:00,
2013-01-01 04:06:00,31.7,26.6,29.34,WNW,288,0.4,1.8,81,0.00,,,0.00,WUHU216HW,2013-01-01 09:06:00,
2013-01-01 04:11:00,31.7,26.6,29.33,WNW,293,1.1,1.1,81,0.00,,,0.00,WUHU216HW,2013-01-01 09:11:00,
2013-01-01 04:16:00,31.9,26.7,29.33,WSW,242,1.0,1.8,81,0.00,,,0.00,WUHU216HW,2013-01-01 09:16:00,
2013-01-01 04:22:00,31.9,26.7,29.33,West,275,0.7,1.8,81,0.00,,,0.00,WUHU216HW,2013-01-01 09:22:00,
2013-01-01 04:27:00,31.9,26.7,29.33,WSW,248,0.4,1.1,81,0.00,,,0.00,WUHU216HW,2013-01-01 09:27:00,
2013-01-01 04:32:00,31.9,26.7,29.34,WSW,248,0.4,1.8,81,0.00,,,0.00,WUHU216HW,2013-01-01 09:32:00,
2013-01-01 04:37:00,31.9,26.7,29.34,WSW,248,0.4,1.8,81,0.00,,,0.00,WUHU216HW,2013-01-01 09:37:00,
2013-01-01 04:42:00,31.9,26.7,29.34,WNW,293,0.4,1.3,81,0.00,,,0.00,WUHU216HW,2013-01-01 09:42:00,
2013-01-01 04:47:00,31.9,27.0,29.34,West,270,0.7,0.9,82,0.00,,,0.00,WUHU216HW,2013-01-01 09:47:00,
2013-01-01 04:52:00,31.7,26.8,29.35,WSW,248,0.0,0.9,82,0.00,,,0.00,WUHU216HW,2013-01-01 09:52:00,
2013-01-01 04:57:00,31.7,26.8,29.35,WSW,248,0.3,0.7,82,0.00,,,0.00,WUHU216HW,2013-01-01 09:57:00,
2013-01-01 05:02:00,31.5,26.6,29.35,WSW,248,3.4,3.4,82,0.00,,,0.00,WUHU216HW,2013-01-01 10:02:00,
2013-01-01 05:07:00,31.5,26.6,29.35,WSW,237,0.7,3.4,82,0.00,,,0.00,WUHU216HW,2013-01-01 10:07:00,
2013-01-01 05:12:00,31.5,27.0,29.35,WSW,249,1.5,3.4,83,0.00,,,0.00,WUHU216HW,2013-01-01 10:12:00,
2013-01-01 05:17:00,31.5,27.0,29.35,WSW,248,1.8,2.2,83,0.00,,,0.00,WUHU216HW,2013-01-01 10:17:00,
2013-01-01 05:22:00,31.3,26.5,29.35,West,270,2.2,3.1,82,0.00,,,0.00,WUHU216HW,2013-01-01 10:22:00,
2013-01-01 05:28:00,31.3,26.5,29.35,WSW,251,0.5,3.1,82,0.00,,,0.00,WUHU216HW,2013-01-01 10:28:00,
2013-01-01 05:33:00,31.1,26.3,29.35,WSW,248,0.4,2.2,82,0.00,,,0.00,WUHU216HW,2013-01-01 10:33:00,
2013-01-01 05:38:00,31.0,26.1,29.35,WSW,246,0.7,1.3,82,0.00,,,0.00,WUHU216HW,2013-01-01 10:38:00,
2013-01-01 05:43:00,31.0,26.1,29.35,WSW,248,1.6,1.8,82,0.00,,,0.00,WUHU216HW,2013-01-01 10:43:00,
2013-01-01 05:48:00,30.8,25.9,29.36,WSW,248,1.8,1.8,82,0.00,,,0.00,WUHU216HW,2013-01-01 10:48:00,
2013-01-01 05:53:00,31.0,26.1,29.36,SW,225,3.4,3.4,82,0.00,,,0.00,WUHU216HW,2013-01-01 10:53:00,
2013-01-01 05:58:00,31.0,25.8,29.36,SW,225,2.0,3.4,81,0.00,,,0.00,WUHU216HW,2013-01-01 10:58:00,
2013-01-01 06:03:00,31.0,25.8,29.36,WSW,248,1.1,3.4,81,0.00,,,0.00,WUHU216HW,2013-01-01 11:03:00,
2013-01-01 06:08:00,31.0,25.6,29.37,SW,225,0.4,1.8,80,0.00,,,0.00,WUHU216HW,2013-01-01 11:08:00,
2013-01-01 06:13:00,31.0,25.2,29.37,ESE,113,1.8,2.7,79,0.00,,,0.00,WUHU216HW,2013-01-01 11:13:00,
2013-01-01 06:19:00,31.1,25.4,29.36,SSE,158,1.3,2.7,79,0.00,,,0.00,WUHU216HW,2013-01-01 11:19:00,
2013-01-01 06:24:00,31.1,25.1,29.37,WSW,251,1.0,2.7,78,0.00,,,0.00,WUHU216HW,2013-01-01 11:24:00,
2013-01-01 06:29:00,31.3,25.3,29.37,NNW,327,0.9,4.5,78,0.00,,,0.00,WUHU216HW,2013-01-01 11:29:00,
2013-01-01 06:34:00,31.3,24.9,29.37,WSW,257,0.7,4.5,77,0.00,,,0.00,WUHU216HW,2013-01-01 11:34:00,
2013-01-01 06:39:00,31.3,24.7,29.38,SW,225,2.5,3.4,76,0.00,,,0.00,WUHU216HW,2013-01-01 11:39:00,
2013-01-01 06:44:00,31.3,24.3,29.38,NNW,333,0.8,3.6,75,0.00,,,0.00,WUHU216HW,2013-01-01 11:44:00,
2013-01-01 06:49:00,31.5,24.1,29.38,South,180,2.0,4.5,74,0.00,,,0.00,WUHU216HW,2013-01-01 11:49:00,
2013-01-01 06:54:00,31.5,23.9,29.38,NW,319,0.8,4.5,73,0.00,,,0.00,WUHU216HW,2013-01-01 11:54:00,
2013-01-01 06:59:00,31.3,23.3,29.38,SW,225,1.3,2.9,72,0.00,,,0.00,WUHU216HW,2013-01-01 11:59:00,
2013-01-01 07:04:00,31.3,22.7,29.38,NNW,333,1.7,4.3,70,0.00,,,0.00,WUHU216HW,2013-01-01 12:04:00,
2013-01-01 07:09:00,31.3,22.7,29.38,WSW,253,1.7,4.7,70,0.00,,,0.00,WUHU216HW,2013-01-01 12:09:00,
2013-01-01 07:14:00,31.3,22.0,29.38,WSW,248,4.0,5.4,68,0.00,,,0.00,WUHU216HW,2013-01-01 12:14:00,
2013-01-01 07:19:00,31.3,21.6,29.38,West,263,2.3,5.4,67,0.00,,,0.00,WUHU216HW,2013-01-01 12:19:00,
2013-01-01 07:25:00,31.3,21.2,29.38,North,354,1.7,5.4,66,0.00,,,0.00,WUHU216HW,2013-01-01 12:25:00,
2013-01-01 07:30:00,31.3,21.2,29.39,East,86,2.6,5.4,66,0.00,,,0.00,WUHU216HW,2013-01-01 12:30:00,
2013-01-01 07:35:00,31.3,20.9,29.39,NNE,23,1.8,5.1,65,0.00,,,0.00,WUHU216HW,2013-01-01 12:35:00,
2013-01-01 07:40:00,31.1,21.1,29.39,WNW,293,0.9,2.5,66,0.00,,,0.00,WUHU216HW,2013-01-01 12:40:00,
2013-01-01 07:45:00,31.0,20.5,29.39,SE,129,1.9,4.0,65,0.00,,,0.00,WUHU216HW,2013-01-01 12:45:00,
2013-01-01 07:50:00,31.0,20.5,29.40,NNE,18,1.0,5.6,65,0.00,,,0.00,WUHU216HW,2013-01-01 12:50:00,
2013-01-01 07:55:00,30.8,20.0,29.40,NE,45,4.7,5.6,64,0.00,,,0.00,WUHU216HW,2013-01-01 12:55:00,
2013-01-01 08:00:00,30.8,20.3,29.40,NNE,15,2.3,4.7,65,0.00,,,0.00,WUHU216HW,2013-01-01 13:00:00,
2013-01-01 08:05:00,30.8,20.0,29.41,SW,230,0.8,4.7,64,0.00,,,0.00,WUHU216HW,2013-01-01 13:05:00,
2013-01-01 08:10:00,30.8,19.3,29.41,WSW,248,3.4,6.3,62,0.00,,,0.00,WUHU216HW,2013-01-01 13:10:00,
2013-01-01 08:15:00,31.0,19.4,29.42,NW,305,1.8,6.3,62,0.00,,,0.00,WUHU216HW,2013-01-01 13:15:00,
2013-01-01 08:20:00,31.0,18.7,29.42,SW,225,2.7,5.8,60,0.00,,,0.00,WUHU216HW,2013-01-01 13:20:00,
2013-01-01 08:25:00,31.1,18.9,29.42,SE,135,2.9,5.8,60,0.00,,,0.00,WUHU216HW,2013-01-01 13:25:00,
2013-01-01 08:30:00,31.3,19.4,29.42,WSW,248,1.8,5.1,61,0.00,,,0.00,WUHU216HW,2013-01-01 13:30:00,
2013-01-01 08:35:00,31.5,19.3,29.42,WSW,248,1.8,5.1,60,0.00,,,0.00,WUHU216HW,2013-01-01 13:35:00,
2013-01-01 08:40:00,31.9,20.0,29.42,West,268,1.6,4.5,61,0.00,,,0.00,WUHU216HW,2013-01-01 13:40:00,
2013-01-01 08:45:00,32.0,20.2,29.41,WSW,245,1.5,4.5,61,0.00,,,0.00,WUHU216HW,2013-01-01 13:45:00,
2013-01-01 08:50:00,32.4,20.5,29.41,WSW,248,1.1,4.0,61,0.00,,,0.00,WUHU216HW,2013-01-01 13:50:00,
2013-01-01 08:55:00,32.6,20.6,29.41,SSE,163,1.0,4.0,61,0.00,,,0.00,WUHU216HW,2013-01-01 13:55:00,
2013-01-01 09:01:00,32.8,20.0,29.41,NNE,23,4.5,4.5,59,0.00,,,0.00,WUHU216HW,2013-01-01 14:01:00,
2013-01-01 09:06:00,32.6,19.0,29.41,West,270,5.1,8.9,57,0.00,,,0.00,WUHU216HW,2013-01-01 14:06:00,
2013-01-01 09:11:00,32.6,19.9,29.41,SW,214,2.6,8.9,59,0.00,,,0.00,WUHU216HW,2013-01-01 14:11:00,
2013-01-01 09:16:00,32.6,20.6,29.42,WSW,248,2.5,11.2,61,0.00,,,0.00,WUHU216HW,2013-01-01 14:16:00,
2013-01-01 09:21:00,32.4,21.3,29.43,NNE,23,10.3,11.2,63,0.00,,,0.00,WUHU216HW,2013-01-01 14:21:00,
2013-01-01 09:26:00,32.0,21.6,29.43,NE,47,1.3,10.3,65,0.00,,,0.00,WUHU216HW,2013-01-01 14:26:00,
2013-01-01 09:31:00,31.7,21.2,29.43,NNE,23,3.6,3.6,65,0.00,,,0.00,WUHU216HW,2013-01-01 14:31:00,
2013-01-01 09:36:00,31.1,20.7,29.44,East,96,1.2,3.6,65,0.00,,,0.00,WUHU216HW,2013-01-01 14:36:00,
2013-01-01 09:41:00,30.6,20.2,29.44,NE,41,1.3,4.5,65,0.00,,,0.00,WUHU216HW,2013-01-01 14:41:00,
2013-01-01 09:46:00,30.2,19.8,29.44,SW,225,1.8,4.5,65,0.00,,,0.00,WUHU216HW,2013-01-01 14:46:00,
2013-01-01 09:51:00,29.9,19.8,29.45,ENE,68,1.1,3.6,66,0.00,,,0.00,WUHU216HW,2013-01-01 14:51:00,
2013-01-01 09:57:00,29.9,19.8,29.45,NE,44,0.6,4.5,66,0.00,,,0.00,WUHU216HW,2013-01-01 14:57:00,
2013-01-01 10:02:00,29.7,19.4,29.46,ESE,113,3.1,4.5,65,0.00,,,0.00,WUHU216HW,2013-01-01 15:02:00,
2013-01-01 10:07:00,29.2,18.5,29.46,North,5,1.4,3.4,64,0.00,,,0.00,WUHU216HW,2013-01-01 15:07:00,
2013-01-01 10:12:00,29.2,18.8,29.46,ENE,68,1.1,3.4,65,0.00,,,0.00,WUHU216HW,2013-01-01 15:12:00,
2013-01-01 10:17:00,29.2,18.8,29.47,NE,37,1.8,3.1,65,0.00,,,0.00,WUHU216HW,2013-01-01 15:17:00,
2013-01-01 10:22:00,29.2,18.8,29.47,NE,45,2.9,3.4,65,0.00,,,0.00,WUHU216HW,2013-01-01 15:22:00,
2013-01-01 10:27:00,29.2,19.2,29.47,NE,45,1.8,3.4,66,0.00,,,0.00,WUHU216HW,2013-01-01 15:27:00,
2013-01-01 10:32:00,28.8,18.2,29.47,NE,53,1.9,4.9,64,0.00,,,0.00,WUHU216HW,2013-01-01 15:32:00,
2013-01-01 10:37:00,28.8,18.6,29.47,SSW,203,0.7,4.9,65,0.00,,,0.00,WUHU216HW,2013-01-01 15:37:00,
2013-01-01 10:42:00,29.0,19.0,29.46,East,90,2.5,3.4,66,0.00,,,0.00,WUHU216HW,2013-01-01 15:42:00,
2013-01-01 10:47:00,29.0,18.6,29.46,WSW,248,1.8,3.4,65,0.00,,,0.00,WUHU216HW,2013-01-01 15:47:00,
2013-01-01 10:52:00,29.0,17.9,29.46,North,0,2.2,5.1,63,0.00,,,0.00,WUHU216HW,2013-01-01 15:52:00,
2013-01-01 10:57:00,29.0,17.9,29.46,ESE,104,1.4,5.1,63,0.00,,,0.00,WUHU216HW,2013-01-01 15:57:00,
2013-01-01 11:02:00,28.8,17.8,29.46,SW,221,0.9,2.9,63,0.00,,,0.00,WUHU216HW,2013-01-01 16:02:00,
2013-01-01 11:08:00,29.0,17.6,29.46,ENE,68,4.0,4.0,62,0.00,,,0.00,WUHU216HW,2013-01-01 16:08:00,
2013-01-01 11:13:00,29.0,17.6,29.46,East,99,2.7,5.4,62,0.00,,,0.00,WUHU216HW,2013-01-01 16:13:00,
2013-01-01 11:18:00,29.2,17.7,29.46,North,10,1.6,6.5,62,0.00,,,0.00,WUHU216HW,2013-01-01 16:18:00,
2013-01-01 11:23:00,29.2,17.7,29.46,SSW,203,2.0,6.5,62,0.00,,,0.00,WUHU216HW,2013-01-01 16:23:00,
2013-01-01 11:28:00,29.7,18.6,29.45,North,1,1.5,6.3,63,0.00,,,0.00,WUHU216HW,2013-01-01 16:28:00,
2013-01-01 11:33:00,30.2,19.1,29.45,NNE,23,2.9,2.9,63,0.00,,,0.00,WUHU216HW,2013-01-01 16:33:00,
2013-01-01 11:38:00,30.4,18.9,29.45,SW,225,1.8,2.9,62,0.00,,,0.00,WUHU216HW,2013-01-01 16:38:00,
2013-01-01 11:43:00,30.6,19.1,29.45,West,266,1.3,2.9,62,0.00,,,0.00,WUHU216HW,2013-01-01 16:43:00,
2013-01-01 11:48:00,30.6,18.4,29.45,NNE,33,1.4,3.4,60,0.00,,,0.00,WUHU216HW,2013-01-01 16:48:00,
2013-01-01 11:53:00,30.2,18.4,29.46,NNE,28,1.7,3.4,61,0.00,,,0.00,WUHU216HW,2013-01-01 16:53:00,
2013-01-01 11:58:00,29.9,18.0,29.46,WSW,248,2.2,8.3,61,0.00,,,0.00,WUHU216HW,2013-01-01 16:58:00,
2013-01-01 12:03:00,29.9,18.4,29.45,WSW,250,1.9,8.3,62,0.00,,,0.00,WUHU216HW,2013-01-01 17:03:00,
2013-01-01 12:08:00,30.2,18.7,29.44,WSW,252,0.5,4.0,62,0.00,,,0.00,WUHU216HW,2013-01-01 17:08:00,
2013-01-01 12:13:00,30.6,19.1,29.45,NNE,23,2.7,2.7,62,0.00,,,0.00,WUHU216HW,2013-01-01 17:13:00,
2013-01-01 12:18:00,30.6,17.9,29.45,NE,55,1.6,4.5,59,0.00,,,0.00,WUHU216HW,2013-01-01 17:18:00,
2013-01-01 12:23:00,31.0,19.1,29.44,SSW,212,0.9,4.5,61,0.00,,,0.00,WUHU216HW,2013-01-01 17:23:00,
2013-01-01 12:28:00,30.8,18.1,29.45,NE,41,1.8,8.5,59,0.00,,,0.00,WUHU216HW,2013-01-01 17:28:00,
2013-01-01 12:33:00,30.4,17.7,29.44,WNW,293,0.9,8.5,59,0.00,,,0.00,WUHU216HW,2013-01-01 17:33:00,
2013-01-01 12:39:00,29.9,17.3,29.44,SE,135,0.4,8.9,59,0.00,,,0.00,WUHU216HW,2013-01-01 17:39:00,
2013-01-01 12:44:00,29.7,17.1,29.43,WSW,248,2.9,8.9,59,0.00,,,0.00,WUHU216HW,2013-01-01 17:44:00,
2013-01-01 12:49:00,29.5,16.9,29.43,WSW,248,2.7,4.5,59,0.00,,,0.00,WUHU216HW,2013-01-01 17:49:00,
2013-01-01 12:54:00,29.7,17.1,29.43,East,90,1.1,3.4,59,0.00,,,0.00,WUHU216HW,2013-01-01 17:54:00,
2013-01-01 12:59:00,29.9,17.3,29.43,East,90,1.3,5.6,59,0.00,,,0.00,WUHU216HW,2013-01-01 17:59:00,
2013-01-01 13:04:00,30.2,17.6,29.43,NE,45,2.5,5.6,59,0.00,,,0.00,WUHU216HW,2013-01-01 18:04:00,
2013-01-01 13:09:00,30.2,15.9,29.43,WSW,248,1.7,7.8,55,0.00,,,0.00,WUHU216HW,2013-01-01 18:09:00,
2013-01-01 13:14:00,29.9,15.6,29.43,NW,326,2.6,7.8,55,0.00,,,0.00,WUHU216HW,2013-01-01 18:14:00,
2013-01-01 13:19:00,29.7,15.5,29.43,SW,233,1.6,6.3,55,0.00,,,0.00,WUHU216HW,2013-01-01 18:19:00,
2013-01-01 13:24:00,29.3,14.7,29.43,WSW,249,2.8,6.3,54,0.00,,,0.00,WUHU216HW,2013-01-01 18:24:00,
2013-01-01 13:29:00,29.0,14.4,29.43,SW,220,1.9,5.4,54,0.00,,,0.00,WUHU216HW,2013-01-01 18:29:00,
2013-01-01 13:34:00,28.6,14.5,29.42,WSW,248,2.9,4.0,55,0.00,,,0.00,WUHU216HW,2013-01-01 18:34:00,
2013-01-01 13:39:00,28.8,14.7,29.42,SSW,203,1.8,3.4,55,0.00,,,0.00,WUHU216HW,2013-01-01 18:39:00,
2013-01-01 13:44:00,29.2,14.9,29.42,North,0,6.3,6.3,55,0.00,,,0.00,WUHU216HW,2013-01-01 18:44:00,
2013-01-01 13:49:00,29.5,15.3,29.42,WSW,248,2.9,6.3,55,0.00,,,0.00,WUHU216HW,2013-01-01 18:49:00,
2013-01-01 13:54:00,29.9,15.6,29.42,North,10,1.0,6.3,55,0.00,,,0.00,WUHU216HW,2013-01-01 18:54:00,
2013-01-01 13:59:00,30.2,15.9,29.43,WSW,248,2.2,3.1,55,0.00,,,0.00,WUHU216HW,2013-01-01 18:59:00,
2013-01-01 14:04:00,30.4,16.1,29.43,ESE,102,0.4,3.4,55,0.00,,,0.00,WUHU216HW,2013-01-01 19:04:00,
2013-01-01 14:09:00,30.6,15.5,29.43,NNW,342,2.1,4.3,53,0.00,,,0.00,WUHU216HW,2013-01-01 19:09:00,
2013-01-01 14:14:00,30.6,15.5,29.43,NE,45,2.9,4.3,53,0.00,,,0.00,WUHU216HW,2013-01-01 19:14:00,
2013-01-01 14:19:00,30.4,15.3,29.43,North,11,1.3,4.7,53,0.00,,,0.00,WUHU216HW,2013-01-01 19:19:00,
2013-01-01 14:24:00,30.6,15.5,29.43,NNE,23,1.3,4.7,53,0.00,,,0.00,WUHU216HW,2013-01-01 19:24:00,
2013-01-01 14:29:00,31.0,15.4,29.43,NNE,18,2.0,3.8,52,0.00,,,0.00,WUHU216HW,2013-01-01 19:29:00,
2013-01-01 14:34:00,30.8,15.2,29.44,SSW,203,1.8,3.4,52,0.00,,,0.00,WUHU216HW,2013-01-01 19:34:00,
2013-01-01 14:39:00,30.8,15.2,29.44,NE,45,2.2,3.6,52,0.00,,,0.00,WUHU216HW,2013-01-01 19:39:00,
2013-01-01 14:44:00,30.6,14.6,29.44,NE,39,2.0,5.6,51,0.00,,,0.00,WUHU216HW,2013-01-01 19:44:00,
2013-01-01 14:49:00,30.6,15.0,29.43,NNE,20,2.4,5.6,52,0.00,,,0.00,WUHU216HW,2013-01-01 19:49:00,
2013-01-01 14:54:00,30.2,14.7,29.44,SE,135,2.2,9.2,52,0.00,,,0.00,WUHU216HW,2013-01-01 19:54:00,
2013-01-01 14:59:00,29.9,14.4,29.44,West,270,1.8,9.2,52,0.00,,,0.00,WUHU216HW,2013-01-01 19:59:00,
2013-01-01 15:05:00,29.7,14.2,29.43,WNW,290,1.6,6.3,52,0.00,,,0.00,WUHU216HW,2013-01-01 20:05:00,
2013-01-01 15:10:00,29.5,14.0,29.44,NNW,341,0.9,4.0,52,0.00,,,0.00,WUHU216HW,2013-01-01 20:10:00,
2013-01-01 15:15:00,29.3,13.9,29.44,South,180,0.7,3.8,52,0.00,,,0.00,WUHU216HW,2013-01-01 20:15:00,
2013-01-01 15:20:00,29.3,13.9,29.44,SSW,204,0.3,3.8,52,0.00,,,0.00,WUHU216HW,2013-01-01 20:20:00,
2013-01-01 15:25:00,29.0,13.6,29.44,SW,236,1.8,5.4,52,0.00,,,0.00,WUHU216HW,2013-01-01 20:25:00,
2013-01-01 15:30:00,28.6,13.2,29.45,WSW,248,1.8,5.4,52,0.00,,,0.00,WUHU216HW,2013-01-01 20:30:00,
2013-01-01 15:35:00,28.4,13.5,29.45,East,90,1.3,3.6,53,0.00,,,0.00,WUHU216HW,2013-01-01 20:35:00,
2013-01-01 15:40:00,28.1,12.7,29.45,East,90,3.4,5.1,52,0.00,,,0.00,WUHU216HW,2013-01-01 20:40:00,
2013-01-01 15:45:00,27.9,12.5,29.46,ENE,75,1.8,6.5,52,0.00,,,0.00,WUHU216HW,2013-01-01 20:45:00,
2013-01-01 15:50:00,27.5,12.6,29.46,NW,315,0.9,6.5,53,0.00,,,0.00,WUHU216HW,2013-01-01 20:50:00,
2013-01-01 15:55:00,27.0,12.1,29.46,ENE,76,1.3,3.1,53,0.00,,,0.00,WUHU216HW,2013-01-01 20:55:00,
2013-01-01 16:00:00,26.6,11.7,29.46,NNW,335,1.0,3.1,53,0.00,,,0.00,WUHU216HW,2013-01-01 21:00:00,
2013-01-01 16:06:00,26.3,11.0,29.46,NE,45,1.3,3.4,52,0.00,,,0.00,WUHU216HW,2013-01-01 21:06:00,
2013-01-01 16:11:00,25.9,10.6,29.47,NNE,23,3.4,4.0,52,0.00,,,0.00,WUHU216HW,2013-01-01 21:11:00,
2013-01-01 16:16:00,25.6,10.7,29.47,NE,45,4.0,4.0,53,0.00,,,0.00,WUHU216HW,2013-01-01 21:16:00,
2013-01-01 16:21:00,25.2,10.4,29.47,ENE,68,1.1,4.0,53,0.00,,,0.00,WUHU216HW,2013-01-01 21:21:00,
2013-01-01 16:26:00,24.8,9.6,29.47,WSW,252,1.7,3.8,52,0.00,,,0.00,WUHU216HW,2013-01-01 21:26:00,
2013-01-01 16:31:00,24.5,9.7,29.47,WNW,290,1.5,3.8,53,0.00,,,0.00,WUHU216HW,2013-01-01 21:31:00,
2013-01-01 16:36:00,24.1,9.4,29.48,ENE,68,2.7,4.7,53,0.00,,,0.00,WUHU216HW,2013-01-01 21:36:00,
2013-01-01 16:41:00,23.9,9.3,29.48,SW,225,2.0,4.7,53,0.00,,,0.00,WUHU216HW,2013-01-01 21:41:00,
2013-01-01 16:46:00,23.8,9.1,29.48,South,180,1.6,3.4,53,0.00,,,0.00,WUHU216HW,2013-01-01 21:46:00,
2013-01-01 16:51:00,23.4,8.7,29.47,SW,225,0.7,2.0,53,0.00,,,0.00,WUHU216HW,2013-01-01 21:51:00,
2013-01-01 16:56:00,23.4,8.7,29.47,NNW,339,1.4,3.4,53,0.00,,,0.00,WUHU216HW,2013-01-01 21:56:00,
2013-01-01 17:01:00,23.2,8.6,29.47,WSW,239,1.1,4.0,53,0.00,,,0.00,WUHU216HW,2013-01-01 22:01:00,
2013-01-01 17:06:00,23.0,8.8,29.48,NNE,23,1.1,4.0,54,0.00,,,0.00,WUHU216HW,2013-01-01 22:06:00,
2013-01-01 17:11:00,22.7,8.5,29.48,West,279,1.0,2.5,54,0.00,,,0.00,WUHU216HW,2013-01-01 22:11:00,
2013-01-01 17:17:00,22.5,8.6,29.49,NNE,16,2.1,4.5,55,0.00,,,0.00,WUHU216HW,2013-01-01 22:17:00,
2013-01-01 17:22:00,22.3,8.5,29.49,SW,225,1.6,4.5,55,0.00,,,0.00,WUHU216HW,2013-01-01 22:22:00,
2013-01-01 17:27:00,22.1,8.4,29.50,West,270,1.1,2.7,55,0.00,,,0.00,WUHU216HW,2013-01-01 22:27:00,
2013-01-01 17:32:00,22.0,8.2,29.50,South,180,3.4,3.4,55,0.00,,,0.00,WUHU216HW,2013-01-01 22:32:00,
2013-01-01 17:37:00,22.0,8.2,29.50,SW,225,1.1,3.4,55,0.00,,,0.00,WUHU216HW,2013-01-01 22:37:00,
2013-01-01 17:42:00,21.8,8.0,29.49,WSW,248,1.1,3.4,55,0.00,,,0.00,WUHU216HW,2013-01-01 22:42:00,
2013-01-01 17:47:00,21.4,8.0,29.49,NE,45,0.9,2.2,56,0.00,,,0.00,WUHU216HW,2013-01-01 22:47:00,
2013-01-01 17:52:00,21.2,7.9,29.49,SW,231,1.4,2.7,56,0.00,,,0.00,WUHU216HW,2013-01-01 22:52:00,
2013-01-01 17:57:00,21.2,7.9,29.50,WSW,248,0.2,3.8,56,0.00,,,0.00,WUHU216HW,2013-01-01 22:57:00,
2013-01-01 18:03:00,21.1,7.8,29.50,WSW,248,0.7,6.3,56,0.00,,,0.00,WUHU216HW,2013-01-01 23:03:00,
2013-01-01 18:08:00,20.9,7.9,29.51,SW,220,0.5,6.3,57,0.00,,,0.00,WUHU216HW,2013-01-01 23:08:00,
2013-01-01 18:13:00,20.7,7.7,29.51,WSW,248,1.8,4.5,57,0.00,,,0.00,WUHU216HW,2013-01-01 23:13:00,
2013-01-01 18:18:00,20.5,7.6,29.52,WSW,245,1.3,4.5,57,0.00,,,0.00,WUHU216HW,2013-01-01 23:18:00,
2013-01-01 18:23:00,20.3,7.4,29.53,ENE,68,4.0,4.0,57,0.00,,,0.00,WUHU216HW,2013-01-01 23:23:00,
2013-01-01 18:28:00,20.3,7.8,29.53,North,3,2.3,4.5,58,0.00,,,0.00,WUHU216HW,2013-01-01 23:28:00,
2013-01-01 18:33:00,20.2,7.7,29.53,SW,225,0.4,4.5,58,0.00,,,0.00,WUHU216HW,2013-01-01 23:33:00,
2013-01-01 18:38:00,20.2,7.7,29.54,NW,315,1.1,1.8,58,0.00,,,0.00,WUHU216HW,2013-01-01 23:38:00,
2013-01-01 18:43:00,20.0,7.5,29.54,SE,135,0.6,1.8,58,0.00,,,0.00,WUHU216HW,2013-01-01 23:43:00,
2013-01-01 18:48:00,19.8,7.3,29.54,West,270,0.4,1.3,58,0.00,,,0.00,WUHU216HW,2013-01-01 23:48:00,
2013-01-01 18:53:00,19.6,7.6,29.54,West,281,1.5,2.5,59,0.00,,,0.00,WUHU216HW,2013-01-01 23:53:00,
2013-01-01 18:58:00,19.6,7.6,29.54,West,280,0.7,2.5,59,0.00,,,0.00,WUHU216HW,2013-01-01 23:58:00,
2013-01-01 19:03:00,19.6,7.6,29.54,West,274,1.4,2.5,59,0.00,,,0.00,WUHU216HW,2013-01-02 00:03:00,
2013-01-01 19:08:00,19.4,7.4,29.54,WSW,248,1.1,1.8,59,0.00,,,0.00,WUHU216HW,2013-01-02 00:08:00,
2013-01-01 19:14:00,19.3,7.6,29.54,WSW,245,0.7,3.1,60,0.00,,,0.00,WUHU216HW,2013-01-02 00:14:00,
2013-01-01 19:19:00,19.1,7.4,29.54,ENE,60,1.0,3.1,60,0.00,,,0.00,WUHU216HW,2013-01-02 00:19:00,
2013-01-01 19:24:00,19.1,7.4,29.54,NW,324,0.9,1.6,60,0.00,,,0.00,WUHU216HW,2013-01-02 00:24:00,
2013-01-01 19:29:00,19.1,7.4,29.54,NNE,23,1.3,1.3,60,0.00,,,0.00,WUHU216HW,2013-01-02 00:29:00,
2013-01-01 19:34:00,19.1,7.4,29.54,West,270,0.4,1.3,60,0.00,,,0.00,WUHU216HW,2013-01-02 00:34:00,
2013-01-01 19:39:00,18.9,6.8,29.54,West,270,0.9,1.3,59,0.00,,,0.00,WUHU216HW,2013-01-02 00:39:00,
2013-01-01 19:44:00,18.9,6.8,29.55,South,176,0.3,1.1,59,0.00,,,0.00,WUHU216HW,2013-01-02 00:44:00,
2013-01-01 19:49:00,18.7,7.1,29.55,WSW,248,0.4,1.3,60,0.00,,,0.00,WUHU216HW,2013-01-02 00:49:00,
2013-01-01 19:54:00,18.5,6.9,29.55,NNE,23,0.4,1.6,60,0.00,,,0.00,WUHU216HW,2013-01-02 00:54:00,
2013-01-01 19:59:00,18.4,6.8,29.55,SW,225,0.9,1.6,60,0.00,,,0.00,WUHU216HW,2013-01-02 00:59:00,
2013-01-01 20:04:00,18.4,6.8,29.55,NNE,31,0.5,1.6,60,0.00,,,0.00,WUHU216HW,2013-01-02 01:04:00,
2013-01-01 20:09:00,18.2,6.6,29.55,East,90,1.1,1.1,60,0.00,,,0.00,WUHU216HW,2013-01-02 01:09:00,
2013-01-01 20:14:00,18.2,6.6,29.55,SW,219,0.6,1.1,60,0.00,,,0.00,WUHU216HW,2013-01-02 01:14:00,
2013-01-01 20:19:00,18.0,6.5,29.55,NW,315,0.4,2.5,60,0.00,,,0.00,WUHU216HW,2013-01-02 01:19:00,
2013-01-01 20:24:00,17.8,6.3,29.55,ESE,113,0.7,2.5,60,0.00,,,0.00,WUHU216HW,2013-01-02 01:24:00,
2013-01-01 20:29:00,17.6,6.5,29.55,East,90,0.4,1.3,61,0.00,,,0.00,WUHU216HW,2013-01-02 01:29:00,
2013-01-01 20:34:00,17.6,6.1,29.55,NNE,23,2.0,2.0,60,0.00,,,0.00,WUHU216HW,2013-01-02 01:34:00,
2013-01-01 20:39:00,17.6,6.5,29.55,ESE,111,0.8,2.0,61,0.00,,,0.00,WUHU216HW,2013-01-02 01:39:00,
2013-01-01 20:44:00,17.5,6.3,29.55,East,90,0.4,1.1,61,0.00,,,0.00,WUHU216HW,2013-01-02 01:44:00,
2013-01-01 20:50:00,17.1,6.0,29.55,East,90,0.2,0.4,61,0.00,,,0.00,WUHU216HW,2013-01-02 01:50:00,
2013-01-01 20:55:00,16.9,5.8,29.56,East,90,0.0,0.2,61,0.00,,,0.00,WUHU216HW,2013-01-02 01:55:00,
2013-01-01 21:00:00,16.7,5.6,29.56,South,180,0.0,0.0,61,0.00,,,0.00,WUHU216HW,2013-01-02 02:00:00,
2013-01-01 21:05:00,16.4,5.2,29.56,SE,135,0.2,0.2,61,0.00,,,0.00,WUHU216HW,2013-01-02 02:05:00,
2013-01-01 21:10:00,16.0,4.9,29.56,NNW,347,1.1,2.5,61,0.00,,,0.00,WUHU216HW,2013-01-02 02:10:00,
2013-01-01 21:15:00,16.0,5.2,29.55,South,187,0.6,2.5,62,0.00,,,0.00,WUHU216HW,2013-01-02 02:15:00,
2013-01-01 21:20:00,16.0,5.2,29.56,ENE,65,0.4,1.3,62,0.00,,,0.00,WUHU216HW,2013-01-02 02:20:00,
2013-01-01 21:25:00,16.0,5.2,29.56,West,270,0.4,0.7,62,0.00,,,0.00,WUHU216HW,2013-01-02 02:25:00,
2013-01-01 21:30:00,15.8,5.1,29.56,SW,225,1.1,1.1,62,0.00,,,0.00,WUHU216HW,2013-01-02 02:30:00,
2013-01-01 21:35:00,15.8,5.1,29.56,North,0,0.4,1.1,62,0.00,,,0.00,WUHU216HW,2013-01-02 02:35:00,
2013-01-01 21:40:00,15.8,5.1,29.56,ENE,60,0.3,2.0,62,0.00,,,0.00,WUHU216HW,2013-01-02 02:40:00,
2013-01-01 21:45:00,15.8,5.1,29.56,SW,225,0.2,2.0,62,0.00,,,0.00,WUHU216HW,2013-01-02 02:45:00,
2013-01-01 21:50:00,15.7,4.9,29.56,WSW,248,1.0,2.0,62,0.00,,,0.00,WUHU216HW,2013-01-02 02:50:00,
2013-01-01 21:55:00,15.5,4.7,29.56,West,270,0.2,2.0,62,0.00,,,0.00,WUHU216HW,2013-01-02 02:55:00,
2013-01-01 22:00:00,15.5,4.7,29.56,NE,45,1.4,1.8,62,0.00,,,0.00,WUHU216HW,2013-01-02 03:00:00,
2013-01-01 22:05:00,15.5,4.7,29.56,WSW,244,0.9,1.8,62,0.00,,,0.00,WUHU216HW,2013-01-02 03:05:00,
2013-01-01 22:10:00,15.3,4.5,29.56,ENE,61,0.5,1.1,62,0.00,,,0.00,WUHU216HW,2013-01-02 03:10:00,
2013-01-01 22:15:00,15.1,4.3,29.57,NE,45,0.4,1.3,62,0.00,,,0.00,WUHU216HW,2013-01-02 03:15:00,
2013-01-01 22:20:00,14.9,4.2,29.57,ENE,69,0.4,1.3,62,0.00,,,0.00,WUHU216HW,2013-01-02 03:20:00,
2013-01-01 22:25:00,14.8,4.4,29.57,East,98,0.2,0.4,63,0.00,,,0.00,WUHU216HW,2013-01-02 03:25:00,
2013-01-01 22:30:00,14.8,4.1,29.57,SSW,203,0.0,0.2,62,0.00,,,0.00,WUHU216HW,2013-01-02 03:30:00,
2013-01-01 22:35:00,14.8,4.4,29.58,ENE,68,0.0,0.0,63,0.00,,,0.00,WUHU216HW,2013-01-02 03:35:00,
2013-01-01 22:40:00,14.4,4.1,29.59,ENE,68,0.2,0.2,63,0.00,,,0.00,WUHU216HW,2013-01-02 03:40:00,
2013-01-01 22:45:00,14.0,3.7,29.59,ENE,68,0.9,0.9,63,0.00,,,0.00,WUHU216HW,2013-01-02 03:45:00,
2013-01-01 22:50:00,13.9,3.5,29.59,ENE,68,0.2,0.9,63,0.00,,,0.00,WUHU216HW,2013-01-02 03:50:00,
2013-01-01 22:55:00,13.5,3.2,29.59,ESE,113,0.0,0.2,63,0.00,,,0.00,WUHU216HW,2013-01-02 03:55:00,
2013-01-01 23:00:00,13.1,3.2,29.59,East,90,0.4,0.4,64,0.00,,,0.00,WUHU216HW,2013-01-02 04:00:00,
2013-01-01 23:06:00,13.0,3.0,29.59,East,90,0.2,0.4,64,0.00,,,0.00,WUHU216HW,2013-01-02 04:06:00,
2013-01-01 23:11:00,12.8,2.8,29.59,NW,315,0.2,0.4,64,0.00,,,0.00,WUHU216HW,2013-01-02 04:11:00,
2013-01-01 23:16:00,12.4,2.8,29.59,East,90,0.2,0.2,65,0.00,,,0.00,WUHU216HW,2013-01-02 04:16:00,
2013-01-01 23:21:00,12.2,2.6,29.59,East,90,0.9,0.9,65,0.00,,,0.00,WUHU216HW,2013-01-02 04:21:00,
2013-01-01 23:26:00,12.1,2.4,29.59,ESE,113,0.0,0.9,65,0.00,,,0.00,WUHU216HW,2013-01-02 04:26:00,
2013-01-01 23:31:00,12.2,2.6,29.58,WNW,293,0.4,0.4,65,0.00,,,0.00,WUHU216HW,2013-01-02 04:31:00,
2013-01-01 23:36:00,12.2,2.6,29.59,NW,311,0.2,0.4,65,0.00,,,0.00,WUHU216HW,2013-01-02 04:36:00,
2013-01-01 23:41:00,12.4,2.8,29.59,ENE,68,0.2,0.4,65,0.00,,,0.00,WUHU216HW,2013-01-02 04:41:00,
2013-01-01 23:46:00,12.4,2.8,29.58,East,90,0.0,0.4,65,0.00,,,0.00,WUHU216HW,2013-01-02 04:46:00,
2013-01-01 23:51:00,12.4,2.8,29.58,North,0,0.2,0.4,65,0.00,,,0.00,WUHU216HW,2013-01-02 04:51:00,
2013-01-01 23:56:00,12.2,2.6,29.58,North,0,0.2,0.4,65,0.00,,,0.00,WUHU216HW,2013-01-02 04:56:00,